Theta_e
318 317 317 317 316 316 315 314 314 316 322 324 324 323 323 321 321 325 324 322 321 320 320 323 324 325 325 318 318 319 317 318 319 321 322 322 322 323 323 323 322 332 343 342 345
317 317 317 317 316 316 315 315 315 318 322 323 323 323 322 320 321 325 321 321 321 321 321 323 323 323 320 319 318 319 318 320 320 322 322 322 322 322 322 321 322 331 345 345 344
317 316 316 316 316 316 315 315 316 320 323 323 323 323 322 320 326 321 320 321 321 320 321 322 323 323 323 322 320 320 320 320 322 322 321 321 320 321 321 321 323 327 346 344 343
316 316 316 316 316 316 315 315 316 320 323 323 324 322 321 324 330 321 322 322 320 320 322 323 323 324 323 323 322 322 321 322 322 323 323 323 320 321 320 322 322 326 342 342 342
316 316 316 316 316 316 315 315 316 320 323 324 324 320 320 326 326 323 322 322 321 322 322 322 323 323 324 323 323 325 324 324 323 322 323 322 321 321 321 322 323 323 324 336 339
316 316 316 316 316 315 315 314 316 321 323 324 323 318 322 327 325 323 323 322 322 322 322 323 323 322 324 324 325 324 324 323 323 322 323 323 322 322 321 322 323 324 325 323 323
316 315 316 316 316 315 314 314 317 322 324 324 321 318 321 325 326 323 323 323 321 321 321 322 322 321 322 324 325 324 324 323 324 322 323 323 322 323 321 323 324 324 323 324 326
317 317 316 316 315 314 314 313 319 324 324 325 323 321 326 326 322 323 322 324 321 322 321 322 321 321 322 323 324 324 323 324 323 323 322 321 322 322 320 323 323 322 322 323 323
317 317 316 315 315 314 313 314 322 324 326 326 321 324 328 325 323 322 322 322 322 322 322 322 322 322 323 324 325 325 324 325 324 322 322 321 322 322 323 322 321 322 321 320 320
318 318 317 315 314 313 313 321 325 328 326 324 321 324 325 327 325 323 323 322 322 321 322 323 321 322 322 324 327 324 322 319 319 322 323 321 321 320 319 319 318 318 318 319 319
317 317 317 316 314 313 316 326 325 326 324 326 326 326 326 326 324 321 321 323 322 322 323 322 323 324 323 324 321 320 320 319 319 320 321 321 320 318 318 318 318 318 318 317 321
320 318 318 317 315 314 316 325 324 323 325 324 325 325 325 318 317 317 318 320 322 323 322 322 323 323 323 321 321 321 322 321 321 322 321 319 318 318 319 319 318 319 316 320 320
321 321 319 318 316 314 317 326 326 323 325 327 327 324 319 317 319 318 316 316 319 320 320 322 324 323 320 320 321 321 321 321 321 319 318 319 319 319 320 320 319 317 317 320 321
321 321 320 319 315 316 324 328 324 324 330 330 324 318 317 317 319 318 317 317 318 321 322 322 322 321 321 321 321 323 321 319 319 318 320 317 318 319 319 319 320 319 317 319 321
321 321 321 319 322 327 325 324 323 326 331 327 320 317 318 319 318 317 317 317 319 321 319 322 322 322 323 323 322 322 319 318 318 317 317 318 317 318 318 320 320 318 319 317 318
322 321 322 320 318 324 323 324 326 329 331 329 320 320 320 318 319 317 317 317 317 319 319 319 319 320 320 320 320 319 319 318 317 317 321 320 319 320 320 319 321 321 321 319 317
324 322 322 320 320 322 322 325 327 329 326 327 326 323 321 322 320 318 318 318 318 322 324 324 324 320 320 319 320 320 319 322 324 324 325 322 322 321 320 320 321 323 321 319 318
324 323 321 322 322 323 324 324 328 326 327 326 326 327 323 321 321 319 318 319 319 320 323 325 329 324 322 320 321 320 318 321 327 324 323 321 322 320 319 321 322 322 320 319 317
326 323 321 322 322 323 324 327 322 324 326 327 326 329 330 324 324 322 322 320 323 324 328 329 329 324 321 322 319 320 320 318 321 320 322 320 319 320 318 317 319 320 318 315 314
319 319 321 321 322 323 327 324 323 324 325 325 329 328 329 325 325 323 325 326 326 323 320 323 325 324 324 321 319 318 318 319 319 324 324 322 320 320 320 319 319 319 317 315 313
318 318 321 322 323 324 327 326 323 322 323 326 328 330 328 328 327 327 330 329 323 322 320 320 320 322 320 322 322 322 317 317 317 318 319 320 319 319 317 317 319 318 316 312 311
316 321 320 322 326 325 327 326 323 325 323 326 326 327 328 328 329 328 328 328 323 322 321 319 321 321 320 320 321 322 323 321 322 321 317 316 319 318 316 316 315 313 312 312 310
316 317 318 322 328 327 325 325 325 324 325 325 327 326 325 328 329 327 326 322 321 324 323 320 323 325 327 323 321 322 321 321 321 319 321 321 320 314 314 314 313 311 311 310 309
312 315 311 318 322 326 326 326 326 323 325 324 325 324 325 326 326 327 327 322 317 321 319 322 324 327 331 325 323 323 322 321 322 320 321 318 317 315 316 315 313 312 311 309 308
311 310 311 313 318 323 324 324 326 326 324 324 324 325 325 326 326 326 325 318 315 319 318 319 323 323 324 324 324 323 321 320 320 320 322 321 321 317 315 314 313 311 310 310 308
305 309 311 314 317 320 320 326 325 325 323 325 326 324 322 326 325 325 325 320 320 314 317 317 319 319 322 321 322 322 321 319 320 320 319 319 319 317 315 313 312 311 310 307 309
304 307 311 314 317 319 320 322 326 324 323 324 323 324 323 323 322 322 320 319 319 317 315 316 315 316 322 320 320 321 319 319 318 317 318 319 318 315 313 313 312 308 306 308 308
Wind_Speed
9 10 11 14 15 17 18 19 21 23 25 29 32 35 33 33 31 6 3 4 1 7 11 13 17 18 23 7 8 2 1 6 8 4 2 5 3 1 3 3 2 6 11 13 32
10 11 12 14 16 17 19 20 21 24 26 29 33 36 32 35 23 5 5 2 6 9 7 10 10 12 4 8 5 4 3 7 10 5 3 4 2 2 3 4 5 4 18 30 29
11 12 13 14 16 17 18 21 21 23 27 29 34 36 30 28 4 2 3 2 6 5 6 12 17 8 6 5 7 8 9 9 8 4 5 5 9 3 5 5 5 3 15 17 20
11 12 14 15 16 19 19 20 21 23 26 30 35 35 28 8 3 3 3 5 4 4 7 9 7 5 6 7 8 6 10 6 6 5 3 3 7 9 6 6 4 10 18 16 15
12 12 14 16 17 19 21 21 22 24 26 30 33 28 16 5 3 3 5 6 6 6 10 8 7 6 5 7 9 4 5 6 9 8 4 2 7 7 8 10 4 6 7 14 15
13 12 15 17 18 21 23 22 24 25 26 30 28 22 4 3 2 5 4 7 12 7 12 10 3 7 5 6 5 8 9 8 7 10 4 5 7 4 9 9 6 6 1 6 5
14 14 14 17 19 21 23 25 25 26 25 28 21 14 5 9 10 8 7 7 8 6 5 11 11 6 8 7 5 9 9 11 14 8 8 8 7 7 10 8 5 5 6 6 3
16 15 14 16 19 21 24 26 28 26 28 23 18 2 6 8 5 3 6 8 4 7 5 4 7 4 3 6 6 6 5 1 13 15 8 7 8 9 7 10 8 8 3 7 7
16 16 14 15 18 20 24 26 27 28 27 21 5 3 7 5 4 2 1 6 8 5 8 9 4 4 5 3 5 3 5 3 10 7 6 5 6 7 2 7 8 7 8 7 6
16 15 15 14 17 18 23 25 24 18 5 5 5 3 5 3 14 0 7 6 3 6 7 3 3 3 4 0 3 4 4 5 3 4 2 5 7 7 8 6 9 9 9 7 9
17 15 15 14 14 15 20 14 6 4 5 5 13 18 17 18 17 6 14 15 6 3 4 7 2 7 11 7 3 4 4 7 7 9 5 6 6 10 10 9 9 9 8 8 11
17 15 13 13 12 12 13 4 4 1 9 14 24 20 29 1 4 6 4 3 6 7 6 4 6 11 6 2 2 4 5 8 8 7 7 8 9 11 14 14 12 14 6 14 9
18 16 13 11 11 10 11 12 6 8 4 10 9 2 7 6 4 3 7 5 5 7 8 6 3 5 3 4 2 5 5 6 5 7 7 8 7 8 9 4 6 6 14 14 15
20 17 13 9 7 7 5 5 1 4 3 6 4 3 4 2 4 5 3 1 2 2 6 6 8 3 4 6 7 4 5 6 8 6 3 6 5 16 15 15 5 11 12 11 13
22 20 16 16 4 1 4 3 4 3 4 3 4 7 5 4 2 5 7 3 3 4 5 6 6 8 8 7 4 5 5 4 5 8 4 15 3 7 6 15 10 7 9 9 9
24 23 18 18 19 4 4 1 3 4 7 5 5 6 4 7 4 5 4 2 5 3 4 8 6 4 8 6 4 3 5 7 6 2 1 17 5 4 8 4 13 9 12 11 10
26 26 27 20 6 15 2 3 2 5 3 5 4 6 8 6 6 7 6 6 4 2 5 5 8 7 6 5 3 4 2 3 3 2 6 6 6 7 5 8 16 17 13 10 10
29 28 31 31 16 11 8 3 10 10 9 3 2 7 7 5 8 9 6 7 10 9 5 5 6 3 2 6 6 3 6 4 5 3 8 1 5 5 4 9 12 12 10 10 9
34 32 24 37 25 23 5 11 8 13 7 6 11 3 7 10 6 8 8 8 5 6 5 3 5 4 7 3 7 4 3 6 4 5 4 5 6 2 8 7 8 11 11 9 9
26 17 26 41 34 21 10 21 9 8 6 7 11 7 7 10 10 6 7 3 2 5 4 3 6 8 13 4 2 5 3 2 3 5 5 5 5 5 4 7 7 8 8 8 7
10 3 16 45 39 9 19 13 17 8 8 9 15 7 10 8 10 5 5 1 6 7 8 7 1 0 5 2 5 4 2 4 5 4 4 1 5 3 7 6 7 7 7 7 6
3 5 27 48 14 12 23 20 13 17 15 14 5 10 8 5 5 5 4 2 6 4 2 1 2 3 5 9 12 9 8 6 6 6 5 3 15 6 8 9 8 8 6 5 3
3 0 16 37 15 17 14 20 25 12 18 17 11 10 7 9 4 6 6 5 6 7 7 4 2 4 6 5 4 5 7 10 9 3 12 9 10 5 8 8 7 7 4 2 2
4 2 3 4 9 22 20 18 21 22 15 9 5 9 8 13 11 6 6 2 3 2 8 9 8 10 13 8 3 5 11 11 5 2 10 14 21 9 11 4 6 4 2 5 7
3 4 4 4 7 9 21 12 21 20 20 18 7 13 18 8 11 14 7 3 4 7 3 6 9 11 18 20 19 20 20 13 16 18 10 26 19 9 5 3 5 5 5 6 2
6 5 3 3 2 11 5 15 24 21 13 22 25 19 13 23 18 13 16 6 6 3 6 4 3 5 14 18 16 21 23 20 22 23 18 25 32 10 6 4 5 7 4 6 6
7 6 4 6 7 8 12 11 12 19 18 22 25 20 22 26 23 12 4 9 8 13 11 8 4 4 10 8 7 14 22 23 22 20 18 22 29 8 7 7 9 2 6 7 6
Wind_Direction
310 319 326 330 335 339 340 344 343 340 343 342 343 342 345 338 331 340 224 152 201 331 323 326 307 276 256 256 261 274 330 279 278 352 34 118 86 116 207 233 257 145 160 155 149
300 310 319 325 328 334 335 337 340 338 339 341 341 340 342 337 330 284 177 157 344 334 337 336 312 310 238 230 247 152 180 246 254 323 17 24 74 242 149 285 281 71 105 129 145
292 304 311 318 322 327 330 331 336 336 336 339 338 338 340 335 310 62 147 1 337 306 323 294 284 288 311 305 255 240 227 252 287 316 50 3 342 324 4 319 317 90 136 139 151
284 296 304 311 317 320 325 326 330 332 334 335 336 337 342 345 11 183 15 350 332 292 301 281 281 273 265 264 277 249 241 257 294 296 58 337 323 327 330 264 81 102 149 154 168
276 290 299 308 313 314 318 322 324 327 330 332 335 339 350 326 262 142 16 324 300 266 250 272 303 328 314 320 326 314 259 273 283 296 193 245 259 248 269 282 85 90 140 171 182
273 284 294 303 310 312 316 319 320 321 324 328 332 338 336 286 7 7 339 308 282 276 284 283 20 333 293 298 309 312 327 318 308 294 280 232 242 227 258 260 162 128 205 267 213
271 280 291 299 305 309 313 316 315 315 319 324 329 342 291 251 315 299 293 280 320 297 313 19 18 18 332 313 320 321 330 310 285 261 250 261 304 245 258 156 178 229 236 201 214
269 275 283 295 303 309 313 315 311 311 312 313 320 357 253 268 303 282 312 256 236 280 272 339 353 291 227 269 304 301 282 334 275 238 230 115 270 279 307 140 191 228 251 186 210
262 272 282 293 301 310 314 315 308 307 306 298 301 172 273 238 252 200 317 335 328 295 274 272 299 237 301 245 317 243 256 304 299 110 139 120 251 247 180 196 211 226 243 213 108
255 265 279 290 300 313 317 316 307 302 343 304 272 327 261 270 312 303 237 282 278 316 343 267 238 235 308 37 232 314 316 326 324 335 144 197 242 280 289 234 237 240 237 186 113
247 257 272 285 296 314 327 337 24 344 1 287 262 256 283 292 309 273 262 215 255 248 216 283 303 225 240 231 270 325 314 303 298 302 347 229 242 263 264 266 257 238 194 142 116
242 249 261 275 287 304 309 282 67 336 301 253 260 266 261 113 310 253 106 156 187 228 228 293 251 239 268 275 281 309 316 297 293 324 0 323 292 274 271 262 243 233 174 133 119
239 241 245 264 280 290 254 258 336 342 281 280 253 228 105 131 258 166 153 181 205 210 210 189 269 197 20 325 336 272 233 277 303 337 333 340 298 275 284 323 48 78 132 124 130
232 232 229 234 269 257 251 265 234 13 332 265 181 138 119 154 272 193 142 159 253 237 150 216 261 203 235 248 247 283 352 357 345 18 269 37 284 303 282 286 125 116 105 114 108
227 223 214 205 281 217 11 137 348 83 345 219 127 145 132 186 154 227 188 184 230 245 113 247 197 205 226 240 323 280 33 345 314 293 11 281 255 266 276 274 151 121 116 109 111
221 218 205 214 243 209 36 118 30 63 240 275 136 182 175 209 264 147 186 234 283 317 220 233 248 242 217 230 202 303 310 300 261 220 184 259 194 263 271 217 139 132 120 110 98
220 215 204 196 206 204 157 40 45 200 207 227 196 179 196 196 220 170 188 190 208 174 235 284 262 233 191 197 252 218 49 319 329 22 210 346 333 253 294 161 162 148 134 131 129
215 215 211 204 186 198 151 65 227 201 202 316 41 349 200 238 215 198 205 224 226 237 257 236 316 261 30 163 172 172 143 165 267 256 287 345 248 254 59 79 103 118 125 116 113
213 208 204 208 193 182 150 214 204 194 211 194 302 282 271 240 237 193 218 228 252 237 225 293 254 352 139 78 135 231 220 214 277 266 289 213 243 25 92 74 106 129 123 141 148
196 199 202 202 186 181 204 226 198 199 158 201 208 225 228 240 255 207 179 236 238 45 68 280 296 230 277 43 343 161 166 360 322 294 266 242 228 237 153 145 134 134 143 132 126
201 223 192 188 179 186 218 214 211 246 196 192 216 232 222 238 252 246 208 305 39 357 21 11 15 32 8 194 234 292 241 224 189 198 238 277 257 178 142 128 137 131 126 124 96
189 243 171 165 188 205 219 211 207 195 216 229 202 218 218 226 268 262 248 220 71 89 51 27 51 273 245 313 294 261 270 236 209 242 242 189 258 154 157 154 138 140 131 87 108
173 190 189 176 200 207 213 222 223 196 198 223 213 195 193 223 237 230 233 97 135 158 176 181 21 329 291 267 254 230 243 244 256 199 240 236 252 101 122 131 167 136 60 332 207
125 176 282 237 232 210 205 206 211 207 223 199 199 192 197 220 219 214 201 123 44 91 121 105 187 220 248 236 291 290 289 294 283 251 272 237 270 242 272 196 175 151 216 264 251
174 190 184 212 233 224 208 211 209 210 210 200 210 215 196 220 223 235 203 96 45 142 114 144 216 214 242 253 262 276 271 267 268 264 254 274 252 261 225 224 220 223 249 244 135
149 153 185 194 165 218 202 215 213 212 177 211 219 194 192 219 200 216 219 165 188 184 164 180 233 212 256 253 256 267 262 252 250 253 252 263 271 227 252 269 271 255 277 87 91
204 196 161 182 189 199 221 235 223 206 213 211 208 209 211 219 224 242 238 190 185 171 175 166 195 181 256 227 241 258 250 242 248 246 242 249 257 286 260 255 257 174 105 109 91